Location: Friedrichshafen
(47.6598°N, 9.4819°E)
Time: 12:19:27
(UTC+02:00)

ISS - Pass Details

Date: 04 January 2018
Orbit: 402 x 408 km, 51.6° (Epoch: 20 July)

Event Time Altitude Azimuth Distance (km) Brightness Sun altitude
Exits shadow 05:29:30 23° 60° (ENE) 951 -1.5 -26.1°
Drops below altitude 10° 05:30:54 10° 65° (ENE) 1,501 -0.2 -25.8°
Enters shadow 06:27:04 -69° 259° (W) 12,325 3.6 -16.6°
